Weather observations for the past three days for
Lincoln, Lincoln Municipal Airport
Imperial (Metric)
Date Time (cdt) Wind (mph) Vis. (mi.) Weather Sky Cond. Temperature (ºF) Relative Humidity Wind Chill (°F) Heat Index (°F) Pressure Precipitation (in)
Air Dwpt 6 hour altimeter (in) sea level (mb) 1 hr 3 hr 6 hr
Max. Min.
21 08:54 Calm 7.00 Mostly Cloudy BKN050 72 66 82% 30.18 1021.2
21 07:54 Calm 5.00 Fog/Mist BKN030 BKN036 OVC049 68 64.9 90% 30.18 1020.9
21 06:54 Calm 4.00 Fog/Mist CLR 64.9 64 71.1 63 97% 30.16 1020.7
21 05:54 Calm 5.00 Fog/Mist BKN050 64.9 63 93% 30.15 1020.2
21 04:54 Calm 6.00 Fog/Mist FEW050 64.9 63 93% 30.14 1020.0
21 03:54 Calm 8.00 Mostly Cloudy BKN050 64.9 62.1 90% 30.15 1020.0
21 02:54 Calm 8.00 A Few Clouds FEW050 68 64 87% 30.15 1020.0
21 01:54 Calm 9.00 Overcast OVC048 70 64 82% 30.15 1020.2
21 00:54 Calm 9.00 Mostly Cloudy BKN037 71.1 63 73.9 70 76% 30.16 1020.4
20 23:54 S 5 9.00 Mostly Cloudy FEW035 BKN044 BKN065 70 63 79% 30.15 1020.1
20 22:54 E 5 9.00 Light Rain BKN033 OVC042 72 64 76% 30.15 1020.2
20 21:54 SE 5 9.00 Overcast OVC044 72 64 76% 30.14 1019.8
20 20:54 SE 8 8.00 Mostly Cloudy BKN090 72 64.9 79% 30.11 1018.6
20 19:54 SE 8 8.00 Overcast FEW025 BKN060 OVC085 73 64.9 76% 30.12 1019.0
20 18:54 E 7 8.00 Overcast FEW023 BKN039 OVC085 73.9 64.9 77 72 74% 30.11 1018.7
20 17:54 E 7 8.00 Overcast SCT029 OVC037 75 64.9 71% 77 30.11 1018.5
20 16:54 E 5 8.00 Overcast SCT023 BKN034 OVC041 75 64.9 71% 77 30.11 1018.7
20 15:54 Calm 7.00 Overcast OVC040 75.9 64.9 69% 78 30.12 1018.9
20 14:54 Calm 8.00 Overcast BKN024 BKN029 OVC036 75 64.9 71% 77 30.13 1019.2
20 13:54 S 3 8.00 Overcast BKN021 OVC032 73 64 74% 30.13 1019.4
20 12:54 Calm 8.00 Overcast OVC025 72 64 73 66.9 76% 30.13 1019.4
20 11:54 Calm 8.00 Overcast OVC021 73 64.9 76% 30.13 1019.4
20 10:54 S 5 8.00 Overcast FEW017 OVC039 71.1 64 79% 30.12 1019.2
20 09:54 S 5 8.00 Overcast BKN037 OVC050 70 63 79% 30.12 1018.9
20 08:54 S 7 8.00 Overcast FEW033 OVC050 70 63 79% 30.1 1018.5
20 07:54 S 7 7.00 Mostly Cloudy FEW033 FEW045 BKN090 68 63 84% 30.09 1018.1
20 06:54 S 9 7.00 Overcast FEW036 OVC046 66.9 63 69.1 66.9 87% 30.1 1018.3 0.02
20 05:54 SE 10 9.00 Overcast OVC039 66.9 63 87% 30.09 1018.1
20 04:54 SE 9 9.00 Overcast OVC044 66.9 63 87% 30.08 1017.5
20 03:54 SE 8 9.00 Overcast OVC055 66.9 64 91% 30.08 1017.7 0.02
20 02:54 SE 12 9.00 Overcast BKN055 OVC075 68 64.9 90% 30.09 1017.9 0.01
20 01:54 S 9 9.00 Light Rain BKN050 OVC060 69.1 64.9 87% 30.09 1017.9 0.01
20 00:54 SE 9 10.00 Partly Cloudy FEW038 SCT085 69.1 64.9 75 69.1 87% 30.07 1017.2 0.14 0.2
19 23:54 Vrbl 5 6.00 Light Rain Fog/Mist BKN070 OVC090 71.1 66.9 87% 30.09 1017.9 0.06
19 22:54 SE 8 9.00 Overcast SCT090 OVC120 73 64.9 76% 30.04 1016.4
19 21:54 E 8 9.00 Light Rain BKN110 73.9 66.9 79% 30.04 1016.1
19 20:54 E 7 9.00 Overcast FEW060 SCT080 OVC110 75 64.9 71% 77 30.03 1015.8
19 19:54 SE 8 8.00 Mostly Cloudy BKN110 75 66 74% 76 30.02 1015.6
19 18:54 E 13 7.00 Overcast OVC100 73 68 82.9 72 84% 30.03 1016.1 0.01 0.08
19 17:54 E 9 5.00 Light Rain FEW080 OVC100 73.9 69.1 85% 30.07 1017.6 0.07
19 16:54 S 7 7.00 Overcast BKN055 OVC075 81 64 57% 83 30.08 1017.6
19 15:54 S 15 8.00 Fair CLR 82.9 64 53% 84 30.07 1017.4
19 14:54 S 15 8.00 Mostly Cloudy BKN070 82 63 53% 83 30.09 1017.9
19 13:54 S 17 8.00 A Few Clouds FEW090 82 63 53% 83 30.1 1018.1
19 12:54 S 16 8.00 Fair CLR 79 62.1 79 64.9 56% 80 30.11 1018.7
19 11:54 S 15 8.00 Fair CLR 77 61 58% 79 30.13 1019.4
19 10:54 S 13 G 22 8.00 A Few Clouds FEW090 73 59 62% 30.15 1019.9
19 09:54 S 13 8.00 A Few Clouds FEW080 73 59 62% 30.15 1020.1
19 08:54 S 8 8.00 Partly Cloudy SCT070 70 59 68% 30.16 1020.5
19 07:54 S 9 8.00 Fair CLR 66.9 57.9 73% 30.16 1020.3
19 06:54 S 6 8.00 A Few Clouds FEW090 64.9 57.9 66 62.1 78% 30.16 1020.2
19 05:54 S 6 9.00 A Few Clouds FEW085 62.1 55.9 80% 30.15 1019.9
19 04:54 S 5 9.00 Fair CLR 64 55.9 75% 30.15 1020.0
19 03:54 S 7 9.00 Fair CLR 63 57 81% 30.16 1020.3
19 02:54 S 7 9.00 A Few Clouds FEW080 64 57 78% 30.16 1020.3
19 01:54 S 5 9.00 Mostly Cloudy BKN085 64.9 57.9 78% 30.16 1020.5
19 00:54 S 8 9.00 Fair CLR 66 59 82 66 78% 30.17 1020.7
18 23:54 S 10 9.00 Fair CLR 70 59 68% 30.16 1020.3
18 22:54 SE 9 8.00 Fair CLR 73 60.1 64% 30.16 1020.2
18 21:54 SE 7 8.00 Fair CLR 73.9 60.1 62% 30.15 1020.1
18 20:54 SE 9 7.00 Fair CLR 75.9 60.1 58% 78 30.14 1019.9
18 19:54 SE 9 7.00 Fair CLR 79 61 54% 80 30.14 1019.7
18 18:54 SE 9 7.00 Mostly Cloudy FEW050 BKN065 82 61 86 79 49% 83 30.15 1020.0
18 17:54 E 5 7.00 Partly Cloudy SCT060 82.9 61 48% 83 30.16 1020.4
18 16:54 SE 7 7.00 A Few Clouds FEW060 81 60.1 49% 82 30.17 1020.8
18 15:54 SW 8 7.00 A Few Clouds FEW070 82 61 49% 83 30.19 1021.3
18 14:54 SW 7 7.00 Mostly Cloudy SCT050 BKN060 82 61 49% 83 30.2 1021.8
18 13:54 SE 6 7.00 A Few Clouds FEW049 FEW060 82 61 49% 83 30.22 1022.3
18 12:54 S 6 7.00 Partly Cloudy SCT045 78.1 60.1 81 61 54% 79 30.23 1022.8
18 11:54 S 7 7.00 A Few Clouds FEW040 78.1 60.1 54% 79 30.24 1023.1
18 10:54 S 9 7.00 Fair CLR 77 60.1 56% 79 30.25 1023.3
18 09:54 S 7 7.00 Fair CLR 73.9 61 64% 30.24 1023.2
Date Time (cdt) Wind (mph) Vis. (mi.) Weather Sky Cond. Air Dwpt Max. Min. Relative Humidity Wind Chill (°F) Heat Index (°F) altimeter (in) sea level (mb) 1 hr 3 hr 6 hr
6 hour
Temperature (ºF) Pressure Precipitation (in)